KUIPER-00072

Last updated on Sat Aug 16 2025 00:02:05 GMT+0000 (Coordinated Universal Time)

1 64819U 25151D 25227.58336806 .00051483 00000+0 14611-2 0 9994 2 64819 51.8766 141.4747 0004660 257.3751 18.0009 15.35696504 5723
UTC large
Height (km)
Speed (km/s)
/
Latitude / Longitude
Inclination (degrees)
Orbital Period (minutes)
Azimuth
Elevation
Range (km)
Doppler Factor

Next 0 passes for location: London (51.5072 / 0.1276)

Sorry there are no passes over London.